FW9243 Weather Reports


Display with metric or nautical units.
time (UTC)temp
F
wind
direction
speed
MPH
gust
MPH
rain 1hr
in
rain 24hr
in
rain mn
in
humidity
%
barometer
mb
20260504001904 51 178 0.0 1.0 0.00 0.02 0.00 91 1015.1
20260504001621 51 135 0.0 1.0 0.00 0.02 0.00 91 1015.2
20260504001543 52 0 0.0 1.0 0.00 0.89 0.00 100 1015.6
20260504000903 51 152 0.0 1.0 0.00 0.02 0.00 91 1015.2
20260504000402 51 178 0.0 1.0 0.00 0.02 0.00 90 1015.2
20260504000036 52 0 0.0 0.0 0.00 0.89 0.00 100 1015.6
20260503235903 51 89 0.0 0.0 0.00 0.02 0.00 91 1015.1
20260503235402 51 45 0.0 1.0 0.00 0.02 0.00 91 1015.2
20260503234903 51 0 0.0 1.0 0.00 0.02 0.00 90 1015.2
20260503234600 52 0 0.0 1.0 0.00 0.89 0.00 100 1015.6
20260503234402 51 117 0.0 1.0 0.00 0.02 0.00 90 1015.2
20260503233903 51 135 0.0 1.0 0.00 0.02 0.00 90 1015.3
20260503233402 51 152 0.0 1.0 0.00 0.02 0.00 90 1015.2
20260503233045 52 137 0.0 1.0 0.00 0.89 0.00 100 1015.6
20260503232903 52 152 0.0 1.0 0.00 0.02 0.00 89 1015.2
20260503232402 52 135 0.0 1.0 0.00 0.02 0.00 89 1015.2
20260503231904 52 161 0.0 1.0 0.00 0.02 0.00 89 1015.3
20260503231536 52 0 0.0 1.0 0.00 0.89 0.00 100 1015.7
20260503231402 52 135 0.0 1.0 0.00 0.02 0.00 89 1015.3
20260503231122 52 135 0.0 1.0 0.00 0.02 0.00 89 1015.4
20260503230402 52 152 0.0 1.0 0.00 0.02 0.00 89 1015.3
20260503230033 52 126 0.0 1.0 0.00 0.89 0.00 100 1015.8
20260503225903 52 178 0.0 1.0 0.00 0.02 0.00 89 1015.4
20260503225620 52 135 0.0 0.0 0.00 0.02 0.00 89 1015.4
20260503224903 53 135 0.0 0.0 0.00 0.02 0.00 89 1015.4
20260503224623 53 135 0.0 1.0 0.00 0.02 0.00 89 1015.4
20260503224542 52 0 0.0 0.0 0.00 0.89 0.00 100 1015.8
20260503223903 53 45 0.0 1.0 0.00 0.02 0.00 89 1015.3
20260503223402 53 178 0.0 1.0 0.00 0.02 0.00 89 1015.4
20260503223040 52 0 0.0 1.0 0.00 0.89 0.00 100 1015.8
20260503222903 53 89 0.0 1.0 0.00 0.02 0.00 89 1015.4
20260503222401 53 161 0.0 1.0 0.00 0.02 0.00 88 1015.4
20260503221903 53 135 0.0 1.0 0.00 0.02 0.00 88 1015.4
20260503221539 52 0 0.0 0.0 0.00 0.89 0.00 100 1015.8
20260503221402 53 135 0.0 1.0 0.00 0.02 0.00 88 1015.4
20260503221126 53 89 0.0 1.0 0.00 0.02 0.00 88 1015.3
20260503220402 53 135 0.0 1.0 0.00 0.02 0.00 88 1015.4
20260503220126 53 135 0.0 1.0 0.00 0.02 0.02 88 1015.4
20260503220039 53 0 0.0 1.0 0.00 0.89 0.00 100 1015.8
20260503215402 53 161 0.0 1.0 0.00 0.02 0.02 87 1015.3
20260503215115 53 314 0.0 2.0 0.00 0.02 0.02 88 1015.2
20260503215054 53 135 1.0 2.0 0.00 0.02 0.02 87 1015.3
20260503214533 53 0 0.0 1.0 0.00 0.89 0.89 100 1015.7
20260503213902 53 135 0.0 2.0 0.00 0.02 0.02 88 1015.2
20260503213402 53 269 0.0 2.0 0.00 0.02 0.02 88 1015.2
20260503213036 53 338 0.0 1.0 0.00 0.89 0.89 100 1015.7
20260503212901 53 269 1.0 2.0 0.00 0.02 0.02 88 1015.2
20260503212402 53 89 1.0 2.0 0.00 0.02 0.02 88 1015.1
20260503211901 54 321 2.0 2.0 0.00 0.02 0.02 88 1015.2
20260503211627 54 331 1.0 2.0 0.00 0.02 0.02 88 1015.1
20260503211535 53 321 1.0 2.0 0.00 0.89 0.89 100 1015.6
20260503210902 54 16 1.0 2.0 0.00 0.02 0.02 88 1015.1
20260503210402 54 331 1.0 1.0 0.00 0.02 0.02 87 1015.1
20260503210032 53 301 1.0 2.0 0.00 0.89 0.89 100 1015.4
20260503205902 54 28 1.0 1.0 0.00 0.02 0.02 87 1015.0
20260503205403 54 306 0.0 1.0 0.00 0.02 0.02 86 1014.9
20260503204902 54 1 1.0 2.0 0.00 0.02 0.02 86 1014.8
20260503204543 54 9 1.0 2.0 0.00 0.89 0.89 100 1015.2
20260503204403 54 324 1.0 2.0 0.00 0.02 0.02 86 1014.9
20260503204333 54 45 1.0 2.0 0.00 0.02 0.02 86 1014.8
20260503204056 54 1 0.0 2.0 0.00 0.02 0.02 86 1014.8
20260503203052 54 0 0.0 2.0 0.00 0.89 0.89 100 1015.1
20260503202902 54 331 1.0 2.0 0.00 0.02 0.02 86 1014.7
20260503202402 55 331 1.0 2.0 0.00 0.02 0.02 86 1014.7
20260503201902 55 178 0.0 1.0 0.00 0.02 0.02 86 1014.6
20260503201624 55 45 0.0 1.0 0.00 0.02 0.02 85 1014.6
20260503201539 54 0 0.0 2.0 0.00 0.89 0.89 100 1014.9
20260503201129 55 45 0.0 3.0 0.00 0.02 0.02 85 1014.4
20260503200359 55 20 1.0 3.0 0.00 0.02 0.02 85 1014.3
20260503200036 55 325 1.0 1.0 0.00 0.89 0.89 100 1014.7
20260503195849 55 269 1.0 2.0 0.00 0.02 0.02 85 1014.3
20260503195558 55 344 0.0 2.0 0.00 0.02 0.02 85 1014.3
20260503194837 55 331 0.0 2.0 0.00 0.03 0.02 85 1014.3
20260503194600 55 320 1.0 2.0 0.00 0.03 0.02 84 1014.1
20260503194537 55 239 1.0 2.0 0.00 0.89 0.89 100 1014.6
20260503193835 55 314 1.0 4.0 0.00 0.03 0.02 84 1014.0
20260503193331 55 331 1.0 4.0 0.00 0.04 0.02 84 1014.0
20260503193056 56 296 1.0 3.0 0.00 0.04 0.02 84 1013.9
20260503193037 55 312 1.0 3.0 0.00 0.89 0.89 100 1014.3
20260503192331 56 320 2.0 3.0 0.00 0.06 0.02 84 1013.8
20260503191830 56 45 0.0 2.0 0.00 0.06 0.02 84 1013.9
20260503191538 55 0 1.0 3.0 0.00 0.89 0.89 100 1014.3
20260503191331 56 341 1.0 4.0 0.00 0.06 0.02 84 1013.8
20260503190830 56 279 1.0 4.0 0.00 0.07 0.02 83 1013.8
20260503190331 56 72 2.0 3.0 0.00 0.07 0.02 84 1013.6
20260503190039 56 0 1.0 3.0 0.00 0.89 0.89 100 1014.1
20260503185803 56 343 2.0 3.0 0.00 0.09 0.02 84 1013.6
20260503185304 56 327 1.0 3.0 0.00 0.14 0.02 83 1013.6
20260503184803 56 331 1.0 7.0 0.00 0.20 0.02 83 1013.5
20260503184749 56 351 3.0 7.0 0.00 0.23 0.02 83 1013.6
20260503184536 56 232 1.0 2.0 0.00 0.89 0.89 100 1014.1
20260503183804 56 329 1.0 3.0 0.00 0.25 0.02 83 1013.5
20260503183302 57 303 1.0 3.0 0.00 0.25 0.02 83 1013.5
20260503183036 56 34 2.0 4.0 0.00 0.89 0.89 100 1014.1
20260503182804 57 341 2.0 5.0 0.00 0.25 0.02 83 1013.6
20260503182304 57 296 2.0 6.0 0.00 0.25 0.02 82 1013.5
20260503181804 57 293 3.0 6.0 0.00 0.25 0.02 82 1013.5
20260503181535 58 316 3.0 8.0 0.00 0.89 0.89 100 1014.1
20260503181302 57 305 4.0 6.0 0.00 0.25 0.02 81 1013.5
20260503180804 57 250 1.0 6.0 0.00 0.25 0.02 81 1013.6
20260503180302 57 348 3.0 9.0 0.00 0.25 0.02 80 1013.5
20260503180045 58 314 1.0 4.0 0.00 0.89 0.89 99 1014.1
20260503175803 57 338 2.0 9.0 0.00 0.25 0.02 79 1013.4
20260503175304 58 331 3.0 6.0 0.00 0.25 0.02 77 1013.4
20260503175022 58 353 3.0 9.0 0.00 0.26 0.02 76 1013.5
20260503174539 58 298 4.0 8.0 0.00 0.89 0.89 95 1014.1
20260503174302 58 341 4.0 9.0 0.00 0.26 0.02 76 1013.4
20260503173803 59 275 4.0 9.0 0.00 0.26 0.02 77 1013.4
20260503173302 59 269 4.0 9.0 0.00 0.26 0.02 77 1013.3
20260503173039 58 336 3.0 5.0 0.89 0.89 0.89 77 1013.9
20260503173033 59 269 3.0 7.0 0.00 0.26 0.02 77 1013.3
20260503172304 59 331 3.0 9.0 0.00 0.26 0.02 78 1013.3
20260503171804 60 331 3.0 10.0 0.00 0.27 0.02 77 1013.2
20260503171543 59 289 4.0 5.0 0.89 0.89 0.89 96 1013.8
20260503171303 60 333 6.0 10.0 0.00 0.27 0.02 77 1013.3
20260503170803 60 329 2.0 5.0 0.00 0.28 0.02 77 1013.2
20260503170519 60 347 3.0 5.0 0.00 0.30 0.02 77 1013.2
20260503150803 58 45 2.0 7.0 0.00 0.44 0.02 80 1013.2
20260503150301 58 300 2.0 7.0 0.00 0.44 0.02 80 1013.3
20260503131302 57 32 2.0 3.0 0.00 0.44 0.02 93 1013.4
20260503130804 57 63 2.0 3.0 0.00 0.44 0.02 93 1013.5
20260503130302 56 66 1.0 2.0 0.00 0.44 0.02 93 1013.4
20260503110302 0 278 2.0 2.0 0.00 0.43 0.00 1013.8
20260503100214 0 0.0 0.0 0.00 0.43 0.00 1013.5
20260503090427 54 314 1.0 3.0 0.00 0.43 0.00 96 1013.5
20260503081537 55 0 0.0 1.0 0.00 0.00 0.00 100 1014.2
20260503081202 53 1 1.0 2.0 0.00 0.43 0.00 96 1013.6
20260503080703 53 54 1.0 3.0 0.00 0.43 0.00 96 1013.6
20260503080201 54 348 1.0 3.0 0.00 0.43 0.00 96 1013.6
20260503072703 54 206 1.0 2.0 0.00 0.43 0.00 95 1013.4
20260503072202 54 223 1.0 2.0 0.00 0.43 0.00 95 1013.4
20260503071703 54 216 1.0 2.0 0.00 0.43 0.00 95 1013.3
20260503071548 55 221 0.0 1.0 0.00 0.00 0.00 100 1013.9
20260503071203 54 45 1.0 1.0 0.00 0.43 0.00 95 1013.3
20260503070703 54 223 1.0 2.0 0.00 0.43 0.00 95 1013.3
20260503070201 54 45 1.0 2.0 0.00 0.43 0.00 95 1013.2
20260503060202 53 178 0.0 1.0 0.00 0.43 0.00 95 1012.9
20260503054704 53 223 0.0 1.0 0.00 0.43 0.00 95 1012.9
20260503054553 55 0 0.0 1.0 0.00 0.00 0.00 100 1013.4
20260503054202 53 45 0.0 1.0 0.00 0.43 0.00 95 1012.8
20260503053703 53 89 0.0 2.0 0.00 0.43 0.00 95 1012.7
20260503053203 53 152 1.0 2.0 0.00 0.43 0.00 95 1012.8
20260503053039 55 162 0.0 1.0 0.00 0.00 0.00 100 1013.3
20260503052703 53 63 0.0 2.0 0.00 0.43 0.00 95 1012.8
20260503052202 53 145 1.0 1.0 0.00 0.43 0.00 95 1012.8
20260503051704 53 178 0.0 1.0 0.00 0.43 0.00 95 1012.7
20260503051540 55 0 0.0 1.0 0.00 0.00 0.00 100 1013.3
20260503051202 53 223 0.0 1.0 0.00 0.43 0.00 95 1012.7
20260503050704 53 178 0.0 1.0 0.00 0.43 0.00 95 1012.7
20260503050202 53 206 0.0 1.0 0.00 0.43 0.00 95 1012.8
20260503050040 55 153 0.0 1.0 0.00 0.00 0.00 100 1013.3
20260503045703 53 178 1.0 1.0 0.00 0.43 0.00 95 1012.7
20260503045202 53 178 0.0 1.0 0.00 0.43 0.00 95 1012.7
20260503044704 53 45 0.0 1.0 0.00 0.43 0.00 95 1012.7
20260503044534 55 0 0.0 1.0 0.00 0.00 0.00 100 1013.2
20260503044202 54 206 0.0 1.0 0.00 0.43 0.00 95 1012.7
20260503043703 54 178 0.0 1.0 0.00 0.43 0.00 95 1012.7
20260503043201 54 178 0.0 1.0 0.00 0.43 0.00 95 1012.7
20260503043035 55 0 0.0 1.0 0.00 0.00 0.00 100 1013.3
20260503042704 54 178 0.0 1.0 0.00 0.43 0.00 95 1012.8
20260503042202 54 223 0.0 1.0 0.00 0.43 0.00 95 1012.7
20260503041926 54 152 1.0 1.0 0.00 0.43 0.00 95 1012.7
20260503041539 55 153 0.0 1.0 0.00 0.00 0.00 100 1013.3
20260503041202 54 178 0.0 1.0 0.00 0.43 0.00 95 1012.8
20260503040703 54 178 1.0 1.0 0.00 0.43 0.00 95 1012.8
20260503040203 54 241 0.0 2.0 0.00 0.43 0.00 95 1012.8
20260503040051 55 0 0.0 1.0 0.00 0.00 0.00 100 1013.4
20260503035703 54 45 0.0 2.0 0.00 0.43 0.00 95 1012.8
20260503035202 54 219 1.0 2.0 0.00 0.43 0.00 95 1012.9
20260503034704 54 178 0.0 1.0 0.00 0.43 0.00 95 1012.9
20260503034539 55 0 0.0 1.0 0.00 0.00 0.00 100 1013.5
20260503034202 54 223 1.0 1.0 0.00 0.43 0.00 95 1013.0
20260503033703 54 223 1.0 1.0 0.00 0.43 0.00 95 1013.0
20260503033202 54 269 1.0 1.0 0.00 0.43 0.00 95 1013.0
20260503033039 55 196 0.0 1.0 0.00 0.00 0.00 100 1013.5
20260503032702 54 178 0.0 1.0 0.00 0.43 0.00 95 1013.1
20260503032423 54 223 0.0 1.0 0.00 0.43 0.00 95 1013.1
20260503031704 54 45 0.0 1.0 0.00 0.43 0.00 95 1013.1
20260503031535 55 0 0.0 1.0 0.00 0.00 0.00 100 1013.6
20260503031202 54 223 0.0 1.0 0.00 0.43 0.00 95 1013.0
20260503030923 54 45 0.0 1.0 0.00 0.43 0.00 95 1013.0
20260503030203 54 269 1.0 1.0 0.00 0.43 0.00 95 1013.0
20260503030045 55 196 0.0 1.0 0.00 0.00 0.00 100 1013.6
20260503025704 54 178 1.0 1.0 0.00 0.43 0.00 95 1013.0
20260503025427 54 45 0.0 1.0 0.00 0.43 0.00 95 1013.1
20260503024704 54 223 0.0 1.0 0.00 0.43 0.00 95 1013.1
20260503024540 55 221 0.0 1.0 0.00 0.00 0.00 100 1013.7
20260503024202 54 206 0.0 1.0 0.00 0.43 0.00 95 1013.1
20260503023704 54 178 0.0 1.0 0.00 0.43 0.00 95 1013.1
20260503023427 54 223 0.0 1.0 0.00 0.43 0.00 95 1013.2
20260503023039 55 0 0.0 1.0 0.00 0.00 0.00 100 1013.7
20260503022704 54 178 0.0 1.0 0.00 0.43 0.00 95 1013.2
20260503022427 54 213 1.0 1.0 0.00 0.43 0.00 95 1013.2
20260503021704 54 45 0.0 1.0 0.00 0.43 0.00 95 1013.2
20260503021539 55 0 0.0 0.0 0.00 0.00 0.00 100 1013.8
20260503021427 54 241 0.0 1.0 0.00 0.43 0.00 95 1013.2
20260503020704 54 223 0.0 1.0 0.00 0.43 0.00 95 1013.3
20260503020202 54 178 0.0 1.0 0.00 0.43 0.00 95 1013.2
20260503020037 55 0 0.0 1.0 0.00 0.00 0.00 100 1013.9
20260503015703 54 250 0.0 1.0 0.00 0.43 0.00 95 1013.4
20260503015202 54 296 1.0 1.0 0.00 0.43 0.00 95 1013.3
20260503014704 54 269 0.0 2.0 0.00 0.43 0.00 95 1013.4
20260503014540 55 0 0.0 1.0 0.00 0.00 0.00 100 1014.0
20260503014422 54 269 1.0 2.0 0.00 0.43 0.00 95 1013.4
20260503013704 54 206 0.0 1.0 0.00 0.43 0.00 95 1013.4
20260503013202 54 178 0.0 1.0 0.00 0.43 0.00 95 1013.5
20260503013038 55 221 0.0 1.0 0.00 0.00 0.00 100 1014.1
20260503012703 54 223 0.0 1.0 0.00 0.43 0.00 95 1013.6
20260503012202 54 206 0.0 1.0 0.00 0.43 0.00 95 1013.6
20260503011703 54 45 0.0 1.0 0.00 0.43 0.00 95 1013.6
20260503011535 55 0 0.0 1.0 0.00 0.00 0.00 100 1014.3
20260503011203 54 45 0.0 1.0 0.00 0.43 0.00 95 1013.8
20260503010704 54 223 0.0 1.0 0.00 0.43 0.00 95 1013.8
20260503010202 54 223 1.0 1.0 0.00 0.43 0.00 95 1013.9
20260503010038 55 0 0.0 1.0 0.00 0.00 0.00 100 1014.4
20260503005703 54 223 1.0 1.0 0.00 0.43 0.00 95 1014.0
20260503005202 54 223 0.0 1.0 0.00 0.43 0.00 95 1014.0
20260503004703 54 269 1.0 1.0 0.00 0.43 0.00 95 1014.1
20260503004537 55 0 0.0 1.0 0.00 0.00 0.00 100 1014.5
20260503004202 54 178 0.0 1.0 0.00 0.43 0.00 95 1014.0
20260503003931 54 223 0.0 1.0 0.00 0.43 0.00 95 1014.1
20260503003202 54 178 0.0 1.0 0.00 0.43 0.00 95 1014.1
20260503003036 55 0 0.0 1.0 0.00 0.00 0.00 100 1014.5
20260503002703 54 269 0.0 1.0 0.00 0.43 0.00 95 1014.1
20260503002203 54 178 0.0 1.0 0.00 0.43 0.00 95 1014.2